SCP
0 0 0 0 0 0 0 0 0 1 1 2 3 5 5 4 4 4 4 5 7 8 8 9 9 10 14 15 12 9 9 9 10 10 9 8 6 5 5 4 3 2 2 2
0 0 0 0 0 0 0 0 0 1 1 2 3 4 5 4 4 5 6 6 8 9 8 8 8 9 11 12 10 8 9 10 11 11 11 10 9 7 6 5 3 3 3 2
0 0 0 0 0 0 0 0 0 0 1 2 2 3 4 4 5 6 6 7 8 9 9 8 7 7 7 8 7 7 8 10 11 12 13 13 12 10 8 6 4 4 3 3
0 0 0 0 0 0 0 0 0 0 1 1 2 2 3 3 4 5 5 6 7 8 8 8 7 6 5 5 4 5 7 9 12 14 14 14 13 12 10 8 7 6 5 4
0 0 0 0 0 0 0 0 0 0 0 1 1 1 2 2 3 4 4 4 5 7 8 8 7 6 5 4 4 4 5 8 11 14 15 15 14 12 11 10 9 8 7 6
0 0 0 0 0 0 0 0 0 0 0 0 0 1 2 2 2 3 3 4 4 6 8 8 7 6 5 4 4 4 4 6 9 12 15 15 14 13 11 11 10 9 8 7
0 0 0 0 0 0 0 0 0 0 0 0 1 1 2 2 2 2 3 4 5 7 8 7 6 5 4 4 4 4 4 5 7 11 14 16 15 14 12 11 11 10 9 8
0 0 0 0 0 0 0 0 0 0 0 0 1 1 2 2 2 2 3 5 7 8 8 7 6 5 5 4 4 4 4 5 7 11 14 16 16 15 14 12 12 11 10 9
0 0 0 0 0 0 0 0 0 0 0 0 1 1 1 2 2 3 5 7 9 9 7 6 6 6 5 3 3 4 4 5 7 10 14 16 17 16 15 14 13 12 11 10
0 0 0 0 0 0 0 0 0 0 0 0 1 1 1 2 3 5 6 7 7 7 6 6 6 5 4 3 2 3 4 5 7 9 11 13 14 15 15 15 14 12 11 10
0 0 0 0 0 0 0 0 0 0 0 0 0 1 1 1 3 4 5 5 6 6 6 6 6 5 3 3 3 3 4 4 5 6 7 8 9 10 12 13 13 13 11 10
0 0 0 0 0 0 0 0 0 0 0 0 0 0 0 1 1 2 3 5 7 7 7 6 5 4 4 4 4 3 3 3 4 4 5 5 5 6 7 9 10 11 11 10
0 0 0 0 0 0 0 0 0 0 0 0 0 0 0 1 1 2 4 6 8 8 7 6 5 4 4 4 4 3 2 2 3 3 3 3 4 4 4 6 7 9 9 9
0 0 0 0 0 0 0 0 0 0 0 0 0 0 1 1 1 2 4 6 7 8 7 6 4 4 3 3 2 2 2 2 3 3 2 2 3 3 4 4 5 6 7 7
0 0 0 0 0 0 0 0 1 1 1 0 0 0 1 1 1 2 3 4 5 6 6 5 4 3 3 2 2 2 2 2 3 2 2 2 2 2 3 3 4 4 5 5
0 0 0 1 1 1 1 1 1 1 1 0 0 0 1 1 1 2 2 3 5 5 5 4 3 3 3 2 2 3 3 2 2 2 1 1 1 2 2 3 3 3 3 3
0 0 0 1 1 1 1 1 0 0 0 0 0 1 1 1 1 1 2 4 5 5 4 3 3 3 3 3 3 3 2 2 2 2 1 1 1 1 2 2 3 3 3 2
0 0 0 0 1 1 1 0 0 0 0 0 1 1 2 1 1 1 3 5 6 5 3 2 2 3 3 3 3 3 2 2 2 2 1 1 1 1 1 2 2 3 3 3
0 0 0 0 0 1 1 1 0 1 1 1 1 2 2 2 2 2 3 5 6 4 2 2 2 3 3 3 3 3 2 2 2 1 1 1 1 1 1 1 2 3 3 3
0 0 0 0 0 1 1 1 0 1 1 1 1 1 2 2 2 2 3 4 5 3 2 2 2 3 3 3 4 3 2 2 1 1 1 1 1 1 1 1 2 3 3 3
0 0 0 0 0 0 1 0 0 0 0 0 0 1 1 2 1 2 3 3 3 2 1 2 3 3 3 3 4 3 2 2 1 1 1 1 1 1 2 3 3 3 3 3
0 0 0 0 0 0 1 0 0 0 0 0 0 1 1 2 2 2 2 2 2 2 1 2 3 4 3 3 3 3 3 2 2 1 1 1 1 1 2 3 3 3 2 2
0 0 0 0 0 1 1 0 0 0 0 1 1 1 1 2 2 1 1 1 1 1 1 2 3 4 3 3 3 3 3 2 2 1 1 1 1 1 2 2 2 2 2 2
0 0 0 0 0 1 1 0 0 0 1 1 1 1 2 2 1 1 1 1 1 1 1 2 2 3 3 3 3 3 3 2 2 1 1 1 1 1 2 2 2 2 2 2
0 0 0 0 0 0 0 0 0 0 1 1 1 1 2 2 1 1 1 1 1 1 1 1 2 2 3 3 3 2 2 2 2 1 1 1 1 1 2 2 2 2 2 2
0 0 0 0 0 0 0 0 0 0 1 1 1 2 2 1 1 1 2 1 1 1 1 1 2 2 3 3 3 2 2 2 2 1 1 1 1 2 2 2 2 2 2 1
Wind_Speed
2 2 4 8 7 7 5 4 6 8 5 0 2 3 3 4 5 6 7 8 8 7 5 7 8 9 9 7 8 7 5 3 3 2 2 2 2 1 1 1 2 3 3 3
3 5 11 8 6 5 5 6 6 6 4 1 2 1 3 3 5 7 8 8 9 7 6 7 8 8 7 7 7 7 6 4 3 3 2 2 2 2 1 1 1 2 3 3
7 9 6 6 7 7 7 6 7 5 4 3 3 3 2 3 1 3 5 7 9 11 9 9 8 8 8 7 7 7 5 5 4 3 2 2 2 2 1 1 0 1 2 3
6 8 5 5 7 6 7 7 6 4 0 3 2 2 5 2 1 0 3 7 9 9 9 9 8 8 7 6 6 6 6 5 3 3 3 4 3 2 2 2 1 1 1 2
6 5 5 6 8 6 6 5 3 3 2 1 1 2 5 2 1 2 2 8 9 10 9 8 8 8 8 7 6 5 5 4 3 3 4 3 2 2 1 1 1 1 1 1
7 6 4 6 6 4 3 2 4 4 5 1 3 3 4 2 3 1 2 5 6 7 7 6 6 6 6 6 6 5 5 3 3 3 3 4 3 2 2 2 1 1 1 1
6 6 4 1 2 4 3 5 4 5 4 4 2 3 4 4 4 5 6 6 6 7 6 7 7 6 6 6 6 5 5 3 3 3 2 3 3 3 3 3 3 2 1 1
2 5 3 1 3 3 1 8 7 4 4 4 1 2 3 3 2 5 6 7 6 5 6 6 6 7 6 6 5 5 4 3 2 2 2 2 2 2 2 2 2 2 2 2
3 6 5 2 2 4 1 2 7 7 2 1 1 0 2 3 4 4 6 7 6 6 7 6 5 5 6 6 5 4 4 3 2 3 2 2 2 2 2 2 1 1 1 2
5 3 6 5 3 2 4 3 5 5 3 1 2 2 3 2 1 1 3 5 5 5 5 5 5 4 4 5 4 4 4 3 2 2 2 1 1 1 2 2 1 1 1 2
4 3 5 4 1 2 1 2 4 3 4 5 2 5 5 5 5 4 4 5 6 6 6 5 5 4 4 4 4 3 3 3 2 1 1 1 0 1 1 1 2 2 2 2
2 5 2 4 4 2 3 3 5 4 2 3 4 6 4 4 4 4 4 4 5 6 5 5 5 5 4 3 3 4 3 3 2 2 1 1 1 0 1 1 2 2 2 2
4 6 2 5 7 5 2 1 2 5 4 3 3 5 2 1 2 3 4 5 5 5 5 4 3 4 3 3 3 3 3 2 2 1 2 1 1 1 2 2 2 2 2 2
5 4 6 6 6 3 2 2 1 5 3 2 4 4 2 2 2 3 4 5 5 5 6 5 3 3 2 2 3 3 2 2 2 2 2 2 2 3 3 2 2 3 3 3
5 3 2 3 3 1 1 1 0 2 6 6 4 4 5 5 4 5 6 6 6 5 4 4 4 3 2 2 1 2 2 2 2 2 2 3 3 3 2 2 2 2 3 3
4 2 1 2 1 1 2 1 0 0 2 4 4 2 3 2 3 3 4 6 6 5 5 4 4 4 3 3 2 2 2 2 2 2 2 3 2 2 2 2 3 2 3 3
1 3 2 2 3 3 2 2 1 1 1 4 4 4 2 2 4 5 4 5 5 5 4 4 4 4 4 4 3 3 3 2 2 3 3 2 2 3 3 3 3 3 3 3
4 3 3 1 3 1 6 2 3 4 2 3 4 3 4 4 3 3 4 5 4 4 4 3 3 3 3 3 3 2 2 2 3 3 3 3 3 3 3 2 3 4 3 3
5 6 4 3 2 3 4 2 1 3 1 1 4 3 3 4 3 1 1 3 4 4 3 3 3 3 2 2 2 2 1 2 3 3 4 4 3 3 3 3 4 4 3 3
5 5 5 3 3 4 5 3 1 5 1 1 3 4 4 4 2 4 3 2 2 2 2 2 2 2 2 2 2 2 1 1 2 2 3 3 3 3 4 4 4 3 3 3
3 3 3 3 3 4 4 3 3 2 5 3 3 4 4 4 5 5 3 2 2 2 3 3 3 2 2 2 2 1 1 2 2 2 2 2 2 3 4 4 3 3 2 2
3 2 1 2 2 5 4 1 3 5 3 2 3 3 3 3 3 3 3 3 2 2 2 3 2 2 2 2 2 1 1 2 2 1 1 2 2 3 2 2 2 2 2 2
2 5 5 5 6 5 1 3 3 4 3 2 2 2 3 3 3 3 3 3 3 3 2 2 2 2 1 2 3 2 2 2 1 1 1 2 2 2 1 2 2 1 1 2
3 1 3 1 2 1 1 2 2 2 3 3 4 4 3 3 4 4 4 3 2 2 2 2 2 2 2 2 2 2 2 1 1 2 2 2 1 1 1 1 1 2 2 2
3 1 1 0 1 1 1 1 1 0 1 2 3 3 3 4 4 4 4 3 3 2 1 2 2 2 3 2 2 2 1 1 1 1 1 1 1 1 1 1 1 1 2 3
2 2 3 4 5 3 4 3 2 2 1 2 3 2 2 3 4 4 3 3 3 2 1 1 2 2 2 2 2 2 2 1 1 1 1 1 1 1 0 0 2 2 2 3
Wind_Direction
234 106 231 234 218 210 235 260 269 273 276 89 190 204 213 199 172 167 164 157 155 157 154 137 138 137 129 126 128 129 127 133 134 137 142 137 149 161 147 151 150 149 148 151
8 254 237 239 245 234 247 259 267 286 296 130 149 241 240 193 188 179 170 165 156 146 133 130 128 129 131 138 138 137 143 151 153 161 171 165 155 153 148 131 137 148 147 151
210 242 238 235 253 253 255 239 241 244 305 11 82 348 335 308 227 151 155 157 148 149 150 149 143 141 138 137 141 141 143 147 155 149 123 97 78 64 58 65 136 194 155 151
238 249 254 251 248 232 261 250 231 229 163 277 145 233 289 282 323 171 159 154 150 150 151 152 149 143 140 141 137 133 138 141 150 145 131 133 136 147 191 190 192 189 140 138
251 247 240 250 245 220 234 254 241 230 169 312 353 139 278 348 351 311 180 158 153 154 152 150 149 148 141 136 133 132 131 133 136 140 148 145 143 170 169 142 139 134 119 137
254 264 230 233 250 224 220 7 13 40 73 328 250 156 278 266 211 198 132 142 141 143 137 136 137 133 128 128 126 129 128 137 142 139 152 152 152 152 132 137 158 172 189 184
301 295 292 289 316 337 74 81 30 358 3 255 238 128 248 262 187 160 147 144 146 148 145 140 131 125 127 129 132 132 133 139 144 142 150 161 157 157 161 171 179 180 187 200
275 291 295 309 193 208 182 136 155 199 224 267 337 169 254 289 152 132 132 135 140 142 143 142 141 137 134 134 131 133 141 145 145 147 157 147 144 159 177 175 175 189 202 208
208 261 286 285 236 153 148 189 175 152 200 192 252 266 325 16 51 86 110 124 136 142 140 138 139 144 143 140 140 142 141 143 150 155 151 147 146 153 176 179 167 185 214 208
170 265 301 310 22 14 158 158 79 103 147 241 274 213 221 240 201 103 111 125 136 139 135 140 143 144 146 146 141 141 139 144 148 153 162 139 174 188 181 160 166 187 216 221
146 158 304 353 65 245 15 61 99 115 147 153 218 262 223 206 192 171 171 156 142 143 145 149 152 144 139 136 131 129 136 137 133 139 136 116 163 205 147 167 192 195 203 201
143 126 242 261 267 212 144 141 132 140 217 159 164 252 267 195 195 171 160 149 142 141 141 143 150 145 138 146 143 139 136 133 147 145 122 135 167 184 175 200 215 207 209 209
118 110 70 346 343 359 33 53 123 128 119 147 159 250 303 114 143 161 148 134 133 129 121 113 124 149 155 164 157 150 146 146 153 138 125 138 249 233 227 229 220 210 213 220
106 113 154 189 222 237 289 316 110 114 133 194 201 207 256 228 179 161 148 141 139 137 136 138 156 174 168 158 161 156 152 164 176 166 155 176 218 222 226 231 230 226 218 216
91 118 184 212 229 185 260 291 165 160 173 174 202 187 216 213 191 172 152 139 132 132 137 149 155 152 150 147 157 157 165 181 187 180 185 206 209 216 222 227 236 239 226 217
68 116 45 337 347 48 12 340 301 184 149 152 148 210 215 170 120 120 137 140 139 149 156 160 160 160 167 170 179 184 178 201 202 208 221 221 210 213 224 231 230 230 231 226
71 108 84 294 314 37 335 290 151 139 166 154 183 215 168 129 146 158 156 152 161 168 168 168 175 184 185 185 182 196 206 206 205 221 232 234 229 223 228 231 227 224 225 218
142 122 125 127 39 244 247 250 110 102 63 128 152 170 166 168 166 167 160 158 165 177 184 186 183 182 190 190 192 191 200 208 213 219 232 236 232 231 230 227 230 230 227 219
143 137 121 116 144 266 293 329 109 110 15 76 133 129 111 109 71 7 222 159 174 182 183 185 180 172 167 179 186 181 214 232 222 225 233 237 232 230 224 227 235 232 220 225
66 100 117 130 154 226 252 298 61 97 3 298 134 148 146 111 116 248 229 167 162 148 151 159 147 124 143 203 183 165 208 219 240 241 236 238 231 230 232 231 232 229 216 222
27 45 108 151 189 248 259 295 45 118 232 251 164 151 151 177 200 209 185 165 155 153 159 148 143 155 188 206 179 171 202 238 257 268 249 233 230 232 236 238 230 223 217 216
160 134 160 139 168 247 276 69 135 203 215 182 160 156 155 171 159 152 159 165 147 130 147 157 156 183 211 197 170 179 243 264 277 286 282 259 246 243 238 233 231 219 206 210
177 182 179 177 205 234 231 157 174 160 150 159 140 135 132 144 159 161 169 170 168 164 173 168 166 186 237 216 181 190 246 269 277 296 278 274 270 255 233 219 217 213 201 201
303 79 110 124 250 246 103 103 115 143 158 160 144 144 146 165 181 168 166 176 183 193 184 161 152 182 242 245 210 209 234 257 266 263 257 261 270 290 300 247 207 191 197 205
264 34 74 195 269 355 311 182 173 141 146 149 148 157 170 157 165 166 169 176 180 176 188 170 173 199 231 233 233 240 233 224 245 276 270 269 260 260 316 334 294 227 229 216
243 177 168 217 223 189 224 221 178 162 172 156 137 121 137 145 155 154 159 166 159 163 182 187 203 213 232 225 225 239 233 218 201 229 275 275 277 287 280 338 339 338 297 273